Location: Sangrey
(48.2845°N, 109.8206°W)
Time: 23:07:05
(UTC+00:00)

Envisat - Pass Details

Date: 27 January 2022
Orbit: 764 x 765 km, 98.2° (Epoch: 21 May)

Event Time Altitude Azimuth Distance (km) Brightness Sun altitude
Rises 13:39:11 0° 3° (N) 3,243 6.1 -12.4°
Reaches altitude 10° 13:41:54 10° 350° (N) 2,312 5.2 -12.0°
Maximum altitude 13:45:49 23° 299° (WNW) 1,593 4.1 -11.4°
Drops below altitude 10° 13:49:43 10° 249° (WSW) 2,302 5.0 -10.8°
Sets 13:52:26 0° 235° (SW) 3,224 5.9 -10.3°
